Regional Weather Roundup
Issued by NWS

Home | Current Version | Previous Version | Graphics & Text | Print | Product List | Glossary On
Versions: 1 2 3 4 5 6 7 8 9 10 11 12 13 14 15 16 17 18 19 20 21 22 23 24 25 26 27 28 29 30 31 32 33 34 35 36 37 38 39 40 41 42 43 44 45 46 47 48 49 50
744
ASUS43 KLOT 252103
RWRIL

ILLINOIS REGIONAL WEATHER ROUNDUP
NATIONAL WEATHER SERVICE CHICAGO/ROMEOVILLE IL
400 PM CDT TUE APR 25 2017

NOTE: "FAIR" INDICATES FEW OR NO CLOUDS BELOW 12,000 FEET WITH NO
SIGNIFICANT WEATHER AND/OR OBSTRUCTIONS TO VISIBILITY.

* THESE STATIONS ARE NOT UNDER NWS QUALITY CONTROL. THEY ALSO MAY NOT
  REPORT WEATHER SUCH AS PRECIPITATION OR FOG.

ILZ001-002-007-009-015-016-024-252200-
NORTHWEST ILLINOIS

CITY           SKY/WX    TMP DP  RH WIND       PRES   REMARKS
MOLINE         MOSUNNY   79  43  27 SE21G26   29.46F
STERLING*      CLOUDY    78  45  30 SE13G25   29.51F
SAVANNA*       CLOUDY    76  44  31 SE16G26   29.50F
$$

ILZ003-004-008-010-011-017-018-252200-
NORTH CENTRAL ILLINOIS

CITY           SKY/WX    TMP DP  RH WIND       PRES   REMARKS
ROCKFORD       CLOUDY    79  48  33 S18G28    29.55F
FREEPORT*      CLOUDY    73  46  37 SE23      29.55F
ROCHELLE*      MOSUNNY   78  47  33 SE24G31   29.54F
DE KALB*       PTSUNNY   76  49  38 SE20G28   29.56F
PERU*          CLOUDY    78  45  30 SE22G30   29.52F
$$

ILZ005-006-012>014-019>023-252200-
NORTHEAST ILLINOIS

CITY           SKY/WX    TMP DP  RH WIND       PRES   REMARKS
CHICAGO-OHARE  PTSUNNY   78  49  35 S13       29.56F
CHICAGO-MIDWAY CLOUDY    79  50  36 SE16G24   29.56F
AURORA         CLOUDY    78  50  37 SE20G29   29.55F
LANSING*       CLOUDY    77  55  45 SE17      29.59F
JOLIET*        CLOUDY    79  51  37 SE14G20   29.57F
WAUKEGAN       CLOUDY    68  51  54 SE14      29.58F
DUPAGE AIRPORT CLOUDY    77  51  40 SE22G28   29.56F
KANKAKEE*      CLOUDY    80  52  36 S15G23    29.59S HX  80
WHEELING       MOSUNNY   74  49  41 E9G20     29.57F
MORRIS*        PTSUNNY   80  46  29 S22       29.54F
ROMEOVILLE*    PTSUNNY   76  54  46 S18       29.57F
NORTHERLY ISL    N/A     61  48  62 NE3         N/A
$$

LMZ740>746-252200-
SOUTHERN LAKE MICHIGAN

STATION/POSITION SKY/WX   TEMP    WIND        PRES    VSBY  WAVE
                          AIR SEA DIR/SP/G                  HT/PER
                          (F)     (DEG/KT/KT) (MB)    (MI)  (FT/S)
SOUTHERN BUOY              48 42  110/  8/  8 1005.1          1
HARRISON CRIB              65     110/ 18/ 18   N/A
BURNHAM HARBOR             61      CALM  /  8   N/A
CALUMET HARBOR             76     160/ 10/ 15 1002.1F
BURNS HARBOR               77     170/ 15/ 22 1003.4F
MICHIGAN CITY              74     150/ 10/ 13   N/A
ST. JOSEPH                 64 50  170/ 10/ 12 1003.7F         1
$$

ILZ025>027-034>036-040-047-049-050-058-095>099-252200-
WEST-CENTRAL ILLINOIS

CITY           SKY/WX    TMP DP  RH WIND       PRES   REMARKS
QUINCY         PTSUNNY   77  48  35 SE17G24   29.44F
GALESBURG*     MOSUNNY   78  45  30 S21G28    29.46F
MACOMB*        MOSUNNY   81  41  24 SE23G30   29.48F
JACKSONVILLE*  SUNNY     79  48  33 SE20G25   29.47F
PITTSFIELD*    MOSUNNY   81  51  35 SE22G33   29.46F HX  80
$$

ILZ028>032-037-038-041>044-048-051>054-059>061-252200-
CENTRAL ILLINOIS

CITY           SKY/WX    TMP DP  RH WIND       PRES   REMARKS
PONTIAC        CLOUDY    82  47  29 S24G30    29.55F HX  80
BLOOMINGTON    MOSUNNY   78  51  38 SE24G33   29.54F
DECATUR        PTSUNNY   77  52  41 S23G30    29.55F
PEORIA         MOSUNNY   79  45  29 S18G31    29.48F
LACON*         MOSUNNY   79  47  32 S20G29    29.48F
LINCOLN*       MOSUNNY   81  50  34 SE23G31   29.50F HX  80
SPRINGFIELD    CLOUDY    82  46  28 SE24G39   29.49F HX  80
TAYLORVILLE    MOSUNNY   79  49  35 SE22G30   29.52F
$$

ILZ033-039-045-046-055>057-062-063-252200-
EAST-CENTRAL ILLINOIS

CITY           SKY/WX    TMP DP  RH WIND       PRES   REMARKS
CHAMPAIGN      SUNNY     81  49  32 S23G32    29.58F HX  80
RANTOUL*       SUNNY     81  52  36 S20       29.58F HX  80
MATTOON        SUNNY     77  55  46 SE20G30   29.59F
$$

ILZ079-100>102-252200-
SOUTHWEST ILLINOIS

CITY           SKY/WX    TMP DP  RH WIND       PRES   REMARKS
ALTON          PTSUNNY   77  50  38 SE21G32   29.50F
BELLEVILLE     SUNNY     79  50  35 E12G30    29.51F
CAHOKIA*       SUNNY     81  47  30 SE22G36   29.50F HX  80
SPARTA*        SUNNY     77  51  40 S21G26    29.56F
$$

ILZ064>066-069>071-074>076-080>082-084>086-088>090-092>094-252200-
SOUTH-CENTRAL ILLINOIS

CITY           SKY/WX    TMP DP  RH WIND       PRES   REMARKS
CARBONDALE     SUNNY     77  53  43 S18G25    29.59F
CAIRO*         SUNNY     78  53  41 SE14      29.62F
EFFINGHAM*     MOSUNNY   78  55  45 SE16G26   29.60F
MARION         MOSUNNY   81  54  39 SE15      29.61F HX  80
MT. VERNON     SUNNY     79  58  48 SE13      29.59F HX  80
CENTRALIA*     SUNNY     80  56  45 SE17G25   29.57F HX  80
SALEM*         CLOUDY    80  53  39 S17G24    29.58F HX  80
METROPOLIS*    SUNNY     79  53  39 S10       29.63F
$$

ILZ067-068-072-073-078-083-087-091-252200-
SOUTHEAST ILLINOIS

CITY           SKY/WX    TMP DP  RH WIND       PRES   REMARKS
LAWRENCEVILLE  SUNNY     78  55  44 S16       29.64F
FLORA*         SUNNY     79  58  48 SE18G24   29.61F HX  80
FAIRFIELD*     MOSUNNY   78  55  45 S14       29.61F
HARRISBURG*    MOSUNNY   78  58  50 SE15G21   29.62F
ROBINSON*      SUNNY     78  55  44 SE16      29.64F
CARMI*         MOSUNNY   78  58  49 S16       29.63F
$$

ABBREVIATIONS USED IN REMARKS
   TC - TEMPERATURE IN CELSIUS
  WCI - WIND CHILL INDEX
   HX - HEAT INDEX
  VSB - VISIBILITY
$$





USA.gov is the U.S. government's official web portal to all federal, state and local government web resources and services.